This is the latest recevied weather packets stored in our database for station/object KO4FR. If no packets are shown the sender has not sent any weather packets the latest 10 day(s).
| Time | Temp. | Humidity | Pressure | Rain* | Wind** | Luminosity | Snow |
|---|---|---|---|---|---|---|---|
| 1777668291 | 18.89° C | 39% | 1012.4 hPa | 0 mm | - | - | - |
| 1777667991 | 18.89° C | 41% | 1012.5 hPa | 0 mm | - | - | - |
| 1777667691 | 19.44° C | 41% | 1012.6 hPa | 0 mm | - | - | - |
| 1777667391 | 19.44° C | 41% | 1012.5 hPa | 0 mm | - | - | - |
| 1777667091 | 18.89° C | 43% | 1012.6 hPa | 0 mm | - | - | - |
| 1777666791 | 18.89° C | 42% | 1012.7 hPa | 0 mm | - | - | - |
| 1777666491 | 18.89° C | 40% | 1012.9 hPa | 0 mm | - | - | - |
| 1777666191 | 18.33° C | 41% | 1012.9 hPa | 0 mm | - | - | - |
| 1777665891 | 18.89° C | 37% | 1013.1 hPa | 0 mm | - | - | - |
| 1777665591 | 19.44° C | 36% | 1013.1 hPa | 0 mm | - | - | - |
| 1777665291 | 18.89° C | 38% | 1013.2 hPa | 0 mm | - | - | - |
| 1777664991 | 19.44° C | 38% | 1013.3 hPa | 0 mm | - | - | - |
| 1777664691 | 19.44° C | 36% | 1013.3 hPa | 0 mm | - | - | - |
| 1777664391 | 19.44° C | 35% | 1013.3 hPa | 0 mm | - | - | - |
| 1777664091 | 19.44° C | 34% | 1013.7 hPa | 0 mm | - | - | - |
| 1777663791 | 19.44° C | 36% | 1013.6 hPa | 0 mm | - | - | - |
| 1777663491 | 19.44° C | 38% | 1013.7 hPa | 0 mm | - | - | - |
| 1777663191 | 18.89° C | 38% | 1013.7 hPa | 0 mm | - | - | - |
| 1777662891 | 18.89° C | 37% | 1013.8 hPa | 0 mm | - | - | - |
| 1777662591 | 18.89° C | 36% | 1013.9 hPa | 0 mm | - | - | - |
| 1777662291 | 18.89° C | 36% | 1013.9 hPa | 0 mm | - | - | - |
| 1777661991 | 18.89° C | 38% | 1013.9 hPa | 0 mm | - | - | - |
| 1777661691 | 18.89° C | 38% | 1014 hPa | 0 mm | - | - | - |
| 1777661391 | 18.89° C | 36% | 1014.2 hPa | 0 mm | - | - | - |
| 1777661091 | 18.89° C | 37% | 1014.4 hPa | 0 mm | - | - | - |
* Rain latest hour (hover to see other rain measurements)
** Current wind speed in m/s (hover to see current wind gust speed)